Location: Krakow
(50.0830°N, 19.9170°E)
Time: 05:49:31
(UTC+01:00)

Vanguard 2 - Pass Details

Date: 13 December 2023
Orbit: 553 x 2919 km, 32.9° (Epoch: 24 February)

Event Time Altitude Azimuth Distance (km) Brightness Sun altitude
Rises 20:34:39 0° 252° (WSW) 6,554 12.8 -46.0°
Reaches altitude 10° 20:39:12 10° 246° (WSW) 5,670 12.2 -46.7°
Enters shadow 20:52:24 40° 202° (SSW) 3,760 10.8 -48.6°
